Location: Karcze
(52.0945°N, 22.4786°E)
Time: 02:24:29
(UTC+00:00)

Vanguard 1 Rocket - All Passes

Search period start: 06 August 2021 00:00
Search period end: 16 August 2021 00:00
Orbit: 650 x 4226 km, 34.3° (Epoch: 05 August)

Date Brightness Start Highest point End Pass type
(mag) Time Alt. Az. Time Alt. Az. Time Alt. Az.
06 Aug - 05:46:56 10° SSW 06:04:42 27° SSE 06:17:31 10° ESE daylight
06 Aug - 08:13:40 10° SW 08:32:12 37° S 08:43:19 10° ESE daylight
06 Aug - 10:44:32 10° WSW 10:58:10 31° SSW 11:06:15 10° SE daylight
06 Aug - 13:18:32 10° WSW 13:21:36 11° SW 13:24:15 10° SSW daylight
07 Aug - 04:36:21 10° S 04:51:54 21° SE 05:04:26 10° ESE daylight
07 Aug - 06:59:48 10° SW 07:19:35 35° SSE 07:32:21 10° ESE daylight
07 Aug - 09:29:36 10° WSW 09:46:35 37° S 09:56:26 10° SE daylight
07 Aug - 12:01:47 10° WSW 12:11:15 21° SW 12:17:34 10° S daylight
08 Aug - 03:28:58 10° SSE 03:39:18 14° SE 03:48:37 10° ESE daylight
08 Aug - 05:46:55 10° SSW 06:06:40 31° SSE 06:20:43 10° ESE daylight
08 Aug - 08:14:51 10° WSW 08:34:24 40° S 08:46:05 10° ESE daylight
08 Aug - 10:46:24 10° WSW 11:00:20 30° SSW 11:08:43 10° SSE daylight
09 Aug - 04:35:28 10° S 04:53:39 26° SSE 05:08:07 10° E daylight
09 Aug - 07:00:39 10° SW 07:21:40 39° S 07:35:11 10° ESE daylight
09 Aug - 09:31:11 10° WSW 09:48:46 37° SSW 09:59:01 10° SE daylight
09 Aug - 12:04:13 10° W 12:13:12 19° SW 12:19:28 10° S daylight
10 Aug - 03:26:10 10° S 03:40:50 19° SE 03:53:47 10° ESE daylight
10 Aug - 05:47:21 10° SW 06:08:34 36° SSE 06:23:40 10° ESE daylight
10 Aug - 08:16:12 10° WSW 08:36:32 41° S 08:48:45 10° ESE daylight
10 Aug - 10:48:21 10° W 11:02:22 29° SSW 11:11:00 10° SSE daylight
11 Aug - 02:22:10 10° SE 02:28:26 11° SE 02:34:31 10° ESE visible
11 Aug - 04:35:19 10° SSW 04:55:21 30° SSE 05:11:19 10° E daylight
11 Aug - 07:01:45 10° SW 07:23:41 42° S 07:37:54 10° ESE daylight
11 Aug - 09:32:52 10° WSW 09:50:50 37° SSW 10:01:30 10° SE daylight
11 Aug - 12:06:55 10° W 12:15:01 16° SW 12:20:58 10° SSW daylight
12 Aug - 03:24:58 10° S 03:42:19 24° SE 03:57:41 10° E daylight
12 Aug - 05:48:09 10° SW 06:10:26 40° SSE 06:26:27 10° ESE daylight
12 Aug - 08:17:41 10° WSW 08:38:35 42° S 08:51:18 10° SE daylight
12 Aug - 10:50:23 10° W 11:04:16 26° SW 11:13:06 10° SSE daylight
13 Aug - 02:17:27 10° SSE 02:29:43 16° SE 02:41:32 10° ESE visible
13 Aug - 04:35:41 10° SSW 04:57:01 35° SSE 05:14:14 10° E daylight
13 Aug - 07:03:03 10° WSW 07:25:40 44° S 07:40:31 10° ESE daylight
13 Aug - 09:34:38 10° W 09:52:48 35° SSW 10:03:51 10° SE daylight
13 Aug - 12:10:08 10° WSW 12:16:41 14° SW 12:21:52 10° SSW daylight
14 Aug - 03:24:40 10° SSW 03:43:45 28° SE 04:00:58 10° E daylight
14 Aug - 05:49:13 10° SW 06:12:15 43° SSE 06:29:05 10° ESE daylight
14 Aug - 08:19:18 10° WSW 08:40:33 42° SSW 08:53:46 10° SE daylight
14 Aug - 10:52:36 10° W 11:06:01 24° SW 11:14:56 10° S daylight
15 Aug - 02:15:40 10° S 02:30:57 20° SE 02:45:57 10° E visible
15 Aug - 04:36:27 10° SW 04:58:39 39° SSE 05:16:57 10° E daylight
15 Aug - 07:04:31 10° WSW 07:27:35 46° S 07:43:01 10° ESE daylight
15 Aug - 09:36:30 10° W 09:54:37 33° SSW 10:06:00 10° SSE daylight
15 Aug - 12:14:38 10° WSW 12:18:13 11° WSW 12:21:22 10° SW daylight
